Weather History for K2I0 - May, 2013

Change the Weather History Date:

Sunday, May 19, 2013

  Actual Average (KOWB) Record (KOWB)
Temperature  
Mean Temperature 76 °F -  
Max Temperature 89 °F 78 °F 94 °F (1951)
Min Temperature 64 °F 57 °F 32 °F (2005)
Cooling Degree Days 12    
Growing Degree Days 26 (Base 50)    
Moisture  
Dew Point 71 °F    
Average Humidity 83    
Maximum Humidity 100    
Minimum Humidity 60    
Precipitation  
Precipitation 0.00 in - - ()
Sea Level Pressure  
Sea Level Pressure 29.93 in    
Wind  
Wind Speed 3 mph (SSW)    
Max Wind Speed 12 mph    
Max Gust Speed -    
Visibility 7 miles    
Events Fog    
Averages and records for this station are not official NWS values.
T = Trace of Precipitation, MM = Missing Value Source: NWS Daily Summary

Daily Weather History Graph

Daily Weather History Graph

Search for Another Location

Airport or City:

Trip Planner

Search our weather history database for the weather conditions in past years. The results will help you decide how hot, cold, wet, or windy it might be!

Date:

Astronomy

May. 19, 2013 Rise Set
Actual Time 5:37 AM CDT 7:55 PM CDT
Civil Twilight 5:07 AM CDT 8:24 PM CDT
Nautical Twilight 4:31 AM CDT 9:01 PM CDT
Astronomical Twilight 3:51 AM CDT 9:41 PM CDT
Moon 2:06 PM CDT (5/19) 1:53 AM CDT (5/19)
Length of Visible Light 15h 16m
Length of Day
14h 17m
Waxing Gibbous, 65% of the Moon is Illuminated
May 19
Waxing Gibbous
May 24
Full
May 31
Last Quarter
Jun 8
New
Jun 16
First Quarter

Hourly Weather History & Observations

Time (CDT) Temp. Heat Index Dew Point Humidity Pressure Visibility Wind Dir Wind Speed Gust Speed Precip Events Conditions
12:15 AM 66.6 °F - 66.6 °F 100% 29.96 in 3.0 mi Calm Calm - N/A   Scattered Clouds
12:35 AM 66.6 °F - 66.6 °F 100% 29.96 in 4.0 mi Calm Calm - N/A   Mostly Cloudy
12:55 AM 66.0 °F - 66.0 °F 100% 29.95 in 2.5 mi Calm Calm - N/A   Mostly Cloudy
1:15 AM 66.6 °F - 66.6 °F 100% 29.95 in 1.5 mi Calm Calm - N/A   Overcast
1:35 AM 66.6 °F - 66.6 °F 100% 29.95 in 5.0 mi Calm Calm - N/A   Overcast
1:55 AM 66.0 °F - 66.0 °F 100% 29.95 in 3.0 mi Calm Calm - N/A   Mostly Cloudy
2:15 AM 66.0 °F - 66.0 °F 100% 29.95 in 1.2 mi Calm Calm - N/A   Scattered Clouds
2:35 AM 66.2 °F - 66.2 °F 100% 29.95 in 4.0 mi Calm Calm - N/A   Scattered Clouds
2:55 AM 65.7 °F - 65.7 °F 100% 29.95 in 3.0 mi Calm Calm - N/A   Mostly Cloudy
3:15 AM 65.7 °F - 65.7 °F 100% 29.94 in 2.0 mi Calm Calm - N/A   Mostly Cloudy
3:35 AM 65.3 °F - 65.3 °F 100% 29.94 in 0.5 mi Calm Calm - N/A Fog Fog
3:55 AM 65.5 °F - 65.5 °F 100% 29.95 in 3.0 mi Calm Calm - N/A   Mostly Cloudy
4:15 AM 64.6 °F - 64.6 °F 100% 29.94 in 1.0 mi Calm Calm - N/A   Overcast
4:35 AM 65.1 °F - 65.1 °F 100% 29.93 in 4.0 mi Calm Calm - N/A   Scattered Clouds
4:55 AM 64.8 °F - 64.8 °F 100% 29.93 in 1.0 mi Calm Calm - N/A   Mostly Cloudy
5:15 AM 65.3 °F - 65.3 °F 100% 29.94 in 1.2 mi Calm Calm - N/A   Overcast
5:35 AM 65.5 °F - 65.5 °F 100% 29.95 in 2.0 mi Calm Calm - N/A   Overcast
5:55 AM 66.4 °F - 66.4 °F 100% 29.94 in 2.0 mi Calm Calm - N/A   Overcast
6:15 AM 67.1 °F - 67.1 °F 100% 29.95 in 2.5 mi Calm Calm - N/A   Overcast
6:35 AM 67.8 °F - 67.8 °F 100% 29.95 in 3.0 mi Calm Calm - N/A   Overcast
7:15 AM 69.4 °F - 69.4 °F 100% 29.95 in 5.0 mi Calm Calm - N/A   Overcast
7:35 AM 70.7 °F - 70.7 °F 100% 29.96 in 5.0 mi SW 3.5 mph - N/A   Overcast
7:55 AM 71.6 °F - 71.1 °F 98% 29.97 in 4.0 mi Calm Calm - N/A   Overcast
8:15 AM 72.7 °F - 72.0 °F 98% 29.98 in 4.0 mi SSW 3.5 mph - N/A   Overcast
8:35 AM 73.4 °F - 72.3 °F 96% 29.98 in 4.0 mi SSE 3.5 mph - N/A   Overcast
8:55 AM 74.3 °F - 72.9 °F 95% 29.98 in 4.0 mi South 3.5 mph - N/A   Overcast
9:15 AM 74.7 °F - 73.0 °F 95% 29.97 in 4.0 mi South 6.9 mph - N/A   Overcast
9:55 AM 76.1 °F - 73.6 °F 92% 29.98 in 5.0 mi South 5.8 mph - N/A   Overcast
10:15 AM 77.9 °F - 74.5 °F 89% 29.98 in 5.0 mi South 8.1 mph - N/A   Overcast
10:35 AM 79.0 °F - 74.7 °F 87% 29.98 in 7.0 mi SSE 8.1 mph - N/A   Mostly Cloudy
10:55 AM 80.6 °F 86.2 °F 75.2 °F 84% 29.98 in 7.0 mi South 8.1 mph - N/A   Scattered Clouds
11:15 AM 80.6 °F 86.0 °F 75.0 °F 83% 29.97 in 7.0 mi SSW 9.2 mph - N/A   Mostly Cloudy
11:35 AM 80.6 °F 86.2 °F 75.2 °F 84% 29.96 in 7.0 mi South 9.2 mph - N/A   Mostly Cloudy
11:55 AM 80.4 °F 86.0 °F 75.6 °F 85% 29.95 in 7.0 mi SSW 6.9 mph - N/A   Scattered Clouds
12:15 PM 80.8 °F 86.7 °F 75.6 °F 84% 29.95 in 7.0 mi South 6.9 mph - N/A   Scattered Clouds
12:35 PM 83.1 °F 91.0 °F 75.7 °F 78% 29.93 in 7.0 mi South 3.5 mph - N/A   Scattered Clouds
12:55 PM 85.1 °F 94.5 °F 75.9 °F 74% 29.92 in 10.0 mi Calm Calm - N/A   Scattered Clouds
1:15 PM 84.0 °F 92.6 °F 75.6 °F 76% 29.92 in 7.0 mi SW 6.9 mph - N/A   Mostly Cloudy
1:35 PM 86.2 °F 96.0 °F 75.9 °F 71% 29.91 in 10.0 mi SSW 6.9 mph - N/A   Mostly Cloudy
2:15 PM 87.6 °F 97.1 °F 75.2 °F 66% 29.90 in 10.0 mi West 6.9 mph - N/A   Mostly Cloudy
2:35 PM 88.0 °F 96.0 °F 73.6 °F 62% 29.89 in 10.0 mi SSW 5.8 mph - N/A   Mostly Cloudy
2:55 PM 88.3 °F 96.4 °F 73.4 °F 61% 29.89 in 10.0 mi SSW 5.8 mph - N/A   Mostly Cloudy
3:15 PM 89.1 °F 97.5 °F 73.6 °F 60% 29.90 in 10.0 mi SSW 6.9 mph - N/A   Mostly Cloudy
3:35 PM 88.2 °F 96.4 °F 73.8 °F 62% 29.90 in 10.0 mi SSW 9.2 mph - N/A   Mostly Cloudy
3:55 PM 87.8 °F 96.1 °F 73.6 °F 63% 29.90 in 10.0 mi South 6.9 mph - N/A   Mostly Cloudy
4:15 PM 87.4 °F 94.8 °F 73.0 °F 62% 29.90 in 10.0 mi SSW 6.9 mph - N/A   Overcast
4:35 PM 88.2 °F 96.4 °F 73.6 °F 62% 29.89 in 10.0 mi South 8.1 mph - N/A   Mostly Cloudy
4:55 PM 88.7 °F 96.7 °F 73.2 °F 60% 29.88 in 10.0 mi SSW 8.1 mph - N/A   Scattered Clouds
5:15 PM 87.8 °F 96.1 °F 73.6 °F 63% 29.88 in 10.0 mi SSW 6.9 mph - N/A   Clear
5:35 PM 88.0 °F 96.5 °F 73.9 °F 63% 29.88 in 10.0 mi SSW 8.1 mph - N/A   Clear
5:55 PM 87.1 °F 95.4 °F 73.9 °F 65% 29.88 in 10.0 mi SSW 11.5 mph - N/A   Clear
6:15 PM 87.1 °F 94.9 °F 73.4 °F 64% 29.88 in 10.0 mi SSW 9.2 mph - N/A   Clear
6:35 PM 86.0 °F 93.0 °F 73.2 °F 65% 29.88 in 10.0 mi SSW 6.9 mph - N/A   Clear
6:55 PM 85.3 °F 91.8 °F 72.9 °F 66% 29.88 in 10.0 mi SSW 9.2 mph - N/A   Clear
7:15 PM 84.2 °F 89.9 °F 72.3 °F 67% 29.88 in 10.0 mi SSW 6.9 mph - N/A   Clear
7:35 PM 82.8 °F 88.2 °F 72.5 °F 71% 29.88 in 10.0 mi SSW 6.9 mph - N/A   Clear
7:55 PM 82.2 °F 87.3 °F 72.5 °F 72% 29.88 in 10.0 mi SW 5.8 mph - N/A   Clear
8:15 PM 81.5 °F 86.3 °F 72.5 °F 74% 29.88 in 10.0 mi SSW 9.2 mph - N/A   Clear
8:35 PM 80.8 °F 85.1 °F 72.3 °F 75% 29.88 in 10.0 mi SSW 6.9 mph - N/A   Clear
8:55 PM 80.1 °F 83.8 °F 71.8 °F 76% 29.89 in 10.0 mi SSW 5.8 mph - N/A   Clear
9:15 PM 79.2 °F - 71.6 °F 78% 29.90 in 10.0 mi SSW 4.6 mph - N/A   Clear
9:35 PM 78.8 °F - 71.6 °F 78% 29.91 in 10.0 mi SSW 6.9 mph - N/A   Clear
9:55 PM 79.0 °F - 71.2 °F 77% 29.91 in 10.0 mi SSW 8.1 mph - N/A   Clear
10:15 PM 78.4 °F - 71.1 °F 78% 29.91 in 10.0 mi SSW 6.9 mph - N/A   Clear
10:35 PM 78.3 °F - 71.1 °F 78% 29.91 in 10.0 mi SSW 6.9 mph - N/A   Clear
10:55 PM 77.9 °F - 70.9 °F 79% 29.92 in 10.0 mi SSW 8.1 mph - N/A   Clear
11:15 PM 77.5 °F - 70.7 °F 79% 29.92 in 10.0 mi SSW 8.1 mph - N/A   Clear
11:35 PM 77.0 °F - 70.2 °F 79% 29.92 in 10.0 mi SSW 8.1 mph - N/A   Clear
11:55 PM 76.6 °F - 70.0 °F 80% 29.92 in 10.0 mi SSW 8.1 mph - N/A   Clear